EHI
13 16 17 17 29 56 82 95 97 98 99 98 98 98 94 85 75 65 49 35 27 23 21 18 13 9 6 2 1 2 1 1 0 0 0 0 0 0 0 0 0 0 1
29 27 26 25 34 56 81 94 97 98 99 99 99 98 95 90 83 73 59 45 35 25 19 14 9 6 4 1 1 1 1 1 0 0 0 0 0 0 0 0 0 1 2
49 41 34 35 43 60 81 94 97 99 100 99 98 96 93 90 85 77 66 54 40 25 14 8 5 2 1 1 0 0 0 0 0 0 0 0 0 0 0 0 0 1 3
56 45 38 42 52 65 81 93 97 97 98 96 92 88 83 79 75 67 59 48 32 17 8 3 1 0 0 1 0 0 0 0 0 0 0 0 0 0 0 0 0 2 4
48 42 41 49 57 68 82 92 95 95 93 89 82 75 70 64 58 50 41 29 18 9 3 1 0 0 0 0 0 0 0 0 0 0 0 0 0 0 0 0 1 2 3
38 36 42 54 60 66 78 87 89 88 87 81 73 65 58 49 41 31 21 13 7 3 1 0 0 0 0 0 0 0 0 0 0 0 0 0 0 0 0 1 2 3 4
36 33 41 54 59 62 69 76 78 79 79 74 64 54 44 33 24 16 9 5 2 1 0 0 0 0 0 0 0 0 0 0 0 0 0 0 1 2 1 2 4 6 6
38 34 37 44 47 51 58 64 67 70 70 63 51 37 26 17 11 7 4 2 0 0 0 0 0 0 0 0 0 0 0 0 0 0 0 1 2 3 3 2 3 6 7
34 33 32 29 29 35 44 52 57 59 56 46 32 21 12 8 5 3 1 0 0 0 0 0 0 0 0 0 0 0 0 0 0 0 0 1 3 5 6 4 3 5 7
29 27 25 21 19 22 28 37 42 41 36 26 17 10 6 4 3 1 0 0 0 0 0 0 0 0 0 0 0 0 0 0 0 0 0 2 4 6 6 5 4 5 7
26 21 17 18 19 18 19 22 25 22 17 11 7 5 3 1 1 0 0 0 0 0 0 0 0 0 0 0 0 0 0 0 0 0 1 3 4 4 5 5 5 6 6
23 17 12 14 17 17 15 13 12 10 6 3 3 2 1 0 0 0 0 0 0 0 0 0 0 0 0 0 0 0 0 0 0 0 0 1 2 3 5 6 5 5 5
16 13 9 10 11 11 9 8 7 5 3 1 1 1 1 0 0 0 0 0 0 0 0 0 0 0 0 0 0 0 0 0 0 0 0 1 3 6 7 6 5 4 4
8 7 6 5 6 5 4 5 5 4 3 2 1 0 0 0 0 0 0 0 0 0 0 0 0 0 0 0 0 0 0 0 0 0 1 4 6 8 8 6 3 3 3
4 4 4 3 4 4 3 4 4 3 2 2 1 0 0 0 0 0 0 0 0 0 0 0 0 0 0 0 0 0 0 0 0 1 3 5 7 7 7 5 3 2 2
3 3 3 3 3 3 4 4 4 2 1 1 0 0 0 0 0 0 0 0 0 0 0 0 0 0 0 0 0 0 0 0 0 1 2 4 5 6 7 7 6 5 4
2 2 3 3 3 2 2 3 3 2 0 0 0 0 0 0 0 0 0 0 0 0 0 0 0 0 0 0 0 0 0 0 0 0 1 1 3 5 7 9 10 8 6
3 3 4 5 5 3 1 1 1 1 0 0 0 0 0 0 0 0 0 0 0 0 0 0 0 0 0 0 0 0 0 0 0 0 0 0 1 2 4 6 7 5 4
9 7 8 9 8 5 4 3 2 1 0 0 0 0 0 0 0 0 0 0 0 0 0 0 0 0 0 0 0 0 0 0 0 0 0 0 0 0 1 1 1 1 1
16 16 16 16 15 12 12 10 7 4 2 1 0 0 0 0 0 0 0 0 0 0 0 0 0 0 0 0 0 0 0 0 0 0 0 0 0 0 0 0 0 0 0
20 23 25 25 24 26 26 23 18 11 4 1 0 0 0 0 0 0 0 0 0 0 0 0 0 0 0 0 0 0 0 0 0 0 0 0 0 0 0 0 0 0 0
20 24 28 29 31 35 37 33 24 14 6 2 1 1 1 0 0 0 0 0 0 0 0 0 0 0 0 0 0 0 0 0 0 0 0 0 0 0 0 0 0 0 0
20 23 26 29 33 36 36 32 25 17 10 6 4 3 2 1 0 0 0 0 0 0 0 0 0 0 0 0 0 0 0 0 0 0 0 0 0 0 0 0 0 0 0
18 20 22 25 28 28 27 25 22 18 13 9 7 5 2 1 0 0 0 0 0 0 0 0 0 0 0 0 0 0 0 0 0 0 0 0 0 0 0 0 0 0 0
13 14 15 15 15 15 15 17 17 15 12 9 6 3 1 0 0 0 0 0 0 0 0 0 0 0 0 0 0 0 0 0 0 0 0 0 0 0 0 0 0 0 0
7 8 8 7 7 7 9 12 13 11 9 7 4 1 0 0 0 0 0 0 0 0 0 0 0 0 0 0 0 0 0 0 0 0 0 0 0 0 0 0 0 0 0
Wind_Speed
8 10 16 17 16 15 16 17 18 19 19 19 19 19 18 17 16 15 15 15 15 15 15 15 15 15 15 15 15 15 15 14 14 14 14 15 15 14 15 15 14 11 15
13 12 18 17 17 16 17 17 18 18 18 18 18 18 17 16 15 14 14 14 14 14 14 14 14 14 14 14 14 14 14 13 12 12 13 14 15 14 14 14 13 10 14
15 13 16 18 17 17 17 17 18 18 18 18 17 17 16 15 15 14 14 13 13 14 14 13 13 13 13 12 12 12 12 11 11 11 11 8 10 13 13 14 14 13 13
14 11 13 18 17 18 18 17 17 18 18 17 17 16 16 15 14 13 13 13 13 12 12 12 12 12 11 11 11 10 10 10 10 10 6 6 7 12 13 13 13 13 13
13 10 13 20 18 18 18 17 17 18 18 17 16 16 15 14 13 12 12 12 12 11 11 11 11 10 10 9 9 8 8 8 9 8 5 4 5 11 12 12 13 13 13
12 10 13 19 18 17 17 17 17 17 17 16 15 15 14 13 12 11 11 11 10 10 9 9 9 8 8 7 7 6 6 7 7 5 5 5 5 10 12 12 12 12 12
12 9 11 17 17 17 17 17 16 16 15 14 14 13 12 11 10 10 10 9 9 8 8 8 7 6 6 6 5 5 4 6 5 4 5 5 5 9 11 11 11 11 11
12 10 10 16 18 17 17 16 15 14 13 13 12 12 11 10 9 9 8 8 7 6 6 6 5 5 4 4 3 3 2 4 5 4 4 4 6 9 11 11 10 10 10
10 10 8 9 12 16 15 14 14 13 12 12 11 11 10 10 9 9 7 7 6 5 4 4 3 3 3 2 1 1 1 2 3 3 4 3 6 9 10 10 10 10 10
9 9 7 7 7 7 9 14 14 13 13 12 12 12 11 10 9 8 6 5 5 4 3 2 1 1 1 1 1 1 1 1 2 2 2 4 7 9 9 9 9 9 8
10 8 7 7 6 6 6 10 11 13 12 12 10 11 9 4 3 4 5 5 5 4 3 2 1 1 1 2 2 2 1 1 1 2 2 5 8 9 9 9 9 8 8
13 12 8 8 8 7 7 5 4 5 5 5 4 5 4 3 2 3 2 5 5 4 3 2 2 2 1 1 2 2 0 1 1 2 3 6 7 8 9 8 8 7 7
12 12 10 9 8 8 5 4 3 3 3 4 4 4 3 3 2 1 1 1 1 2 1 2 2 1 1 0 1 1 1 1 1 2 3 6 7 7 8 7 7 7 7
10 11 10 9 8 7 5 5 4 4 4 3 4 4 3 2 2 1 1 1 0 0 0 1 1 1 1 1 1 1 2 2 2 1 2 5 6 6 7 7 7 7 6
11 11 11 10 9 7 5 5 5 4 4 4 3 4 4 3 3 2 1 1 1 1 1 1 0 0 1 1 1 1 1 1 1 1 1 4 5 6 7 8 8 7 6
11 11 10 10 9 7 5 5 4 4 4 4 3 4 5 3 3 2 2 2 2 2 1 1 1 1 1 1 2 2 2 1 1 1 1 1 2 4 5 6 6 6 6
10 10 10 10 9 8 7 6 4 4 4 4 4 4 5 4 4 3 2 2 2 2 2 2 2 2 2 2 3 3 2 2 1 1 1 1 1 1 2 3 4 4 4
7 9 10 11 10 9 7 6 4 4 5 4 4 4 5 6 5 4 3 2 2 2 2 3 3 2 2 2 2 2 2 2 2 2 1 2 1 1 1 1 2 3 4
7 8 9 9 10 9 7 5 4 3 4 3 3 3 4 5 5 4 3 2 3 2 2 2 2 2 2 2 1 2 2 2 3 3 3 3 3 2 2 2 2 3 4
5 6 7 7 7 7 6 4 3 3 2 2 2 2 3 3 4 4 3 3 3 3 2 2 3 3 2 1 1 2 2 3 3 3 3 3 3 3 3 3 2 2 2
3 3 4 5 6 6 5 5 4 3 3 2 2 3 3 3 4 4 3 3 3 3 3 4 3 3 2 1 1 1 2 3 4 3 3 3 4 4 4 3 3 2 2
3 3 3 3 4 5 5 4 3 4 4 3 3 4 4 4 4 4 3 3 3 4 4 3 3 2 2 2 1 1 0 1 3 4 4 4 4 4 5 5 4 3 3
6 3 2 2 3 4 5 5 5 4 4 3 4 4 5 5 6 5 4 4 4 4 3 3 2 4 2 2 2 1 2 2 0 2 4 4 4 4 4 4 5 5 4
7 6 6 5 5 5 5 6 6 5 4 3 4 5 6 7 7 6 6 6 6 4 4 3 3 2 3 2 2 3 2 2 1 1 1 3 4 4 5 4 5 5 5
9 8 8 8 8 6 6 6 6 6 5 6 7 8 8 7 9 9 8 8 8 6 7 7 6 6 3 3 2 2 3 3 3 1 0 2 2 3 4 4 4 4 5
10 10 10 11 11 9 8 7 8 9 8 9 8 8 7 6 8 10 9 9 9 7 8 8 7 8 6 6 5 3 2 2 2 2 1 1 2 2 2 2 3 4 4
Wind_Direction
151 155 153 150 145 136 128 122 118 116 117 118 119 121 123 123 123 122 121 119 116 113 110 107 105 104 104 105 106 108 109 111 112 114 118 119 116 115 115 114 112 112 116
145 152 152 151 146 140 132 126 122 120 119 119 120 121 123 123 122 122 122 120 118 116 113 111 110 109 108 108 110 111 112 111 111 113 117 121 122 121 120 119 118 119 118
141 149 151 151 148 142 136 131 127 125 124 123 124 124 125 125 124 124 124 122 120 118 117 116 114 113 112 112 113 113 112 110 108 108 108 112 124 127 128 126 124 121 120
141 145 151 153 150 144 139 134 132 131 130 129 129 130 130 129 128 128 127 124 122 121 121 119 118 116 115 115 115 115 114 113 117 118 109 116 125 132 132 131 128 126 123
140 144 155 154 152 146 142 139 138 137 136 136 135 135 135 134 132 132 130 128 126 125 124 122 120 119 118 116 116 117 117 119 124 123 120 113 120 138 138 137 134 131 129
142 147 157 156 154 149 147 145 144 142 142 141 141 140 139 138 137 136 135 134 132 129 127 125 122 120 118 115 113 114 116 119 116 121 128 128 136 147 145 145 141 137 136
146 149 157 157 156 154 152 151 149 148 146 145 144 144 143 143 142 142 141 140 138 136 133 128 124 119 114 110 110 111 116 126 124 130 139 145 155 158 154 150 147 144 143
148 148 154 160 159 158 158 155 153 151 150 148 148 148 148 148 148 148 148 148 147 145 140 133 126 117 106 101 105 112 124 135 132 144 152 160 169 166 160 155 153 152 150
146 147 151 160 163 164 161 158 156 154 154 153 153 154 156 157 158 159 159 160 159 157 151 142 132 117 102 88 77 75 166 153 130 155 169 173 182 174 167 163 162 160 158
148 153 151 153 152 154 160 163 162 161 160 161 162 165 167 169 171 173 169 175 176 177 175 163 137 96 66 32 345 309 252 132 142 172 173 189 191 182 173 171 169 169 167
161 164 158 153 149 147 154 169 167 168 169 169 170 174 170 162 166 176 182 194 202 207 216 228 256 318 3 1 334 304 310 125 177 185 188 198 192 187 181 177 176 174 175
174 176 170 164 160 155 164 156 153 158 161 158 154 163 149 142 162 174 197 214 225 232 248 269 282 325 29 22 330 324 294 209 207 206 208 207 199 194 187 181 179 179 182
176 176 177 173 169 166 159 151 149 143 146 150 155 154 142 139 145 148 103 267 284 283 337 6 8 25 30 302 273 255 225 211 210 220 219 209 201 195 191 185 186 189 193
176 182 178 177 174 173 161 160 159 156 162 166 163 157 149 150 159 162 169 207 230 320 60 39 5 350 345 306 261 227 218 210 204 210 224 214 202 200 197 191 190 192 195
182 184 180 180 180 175 165 167 172 172 174 173 168 168 164 166 177 184 200 207 214 197 188 193 229 28 10 15 38 111 151 191 200 195 220 218 206 204 203 197 190 190 191
187 186 180 183 182 176 175 174 171 173 167 169 177 179 176 174 178 187 204 213 215 200 187 161 146 125 69 57 58 61 73 95 136 151 175 225 226 216 211 204 199 195 194
189 184 182 185 180 181 182 180 171 170 168 178 184 183 183 184 186 185 194 206 207 174 149 125 112 99 92 75 62 54 55 45 57 82 79 56 23 249 215 191 187 194 200
185 186 186 189 182 185 185 177 169 167 171 181 179 180 186 187 181 176 185 198 168 141 138 132 118 99 83 74 59 36 36 31 30 27 28 26 14 11 350 234 214 209 213
185 185 185 187 182 184 179 167 162 156 168 172 168 173 179 179 174 165 169 156 140 132 128 131 96 102 106 96 83 47 25 20 9 15 16 13 11 8 7 343 297 257 234
173 178 179 182 179 172 165 151 144 134 133 129 143 157 156 152 150 144 140 137 132 121 111 103 97 72 81 93 77 53 25 18 19 23 18 15 11 13 12 4 356 331 301
131 143 150 172 172 165 166 168 161 153 125 109 105 97 103 112 120 124 124 122 124 122 118 115 105 90 58 23 84 56 30 32 37 29 29 31 24 18 22 19 9 357 339
74 104 134 157 168 172 171 162 132 117 110 97 84 74 72 89 96 104 109 113 114 110 103 102 110 111 67 24 104 127 92 27 32 28 31 42 32 27 28 24 18 9 349
38 46 92 120 130 141 138 122 114 102 94 96 87 75 62 69 78 81 89 96 93 96 107 102 112 130 133 64 35 124 163 201 81 23 27 33 27 31 23 18 26 17 6
38 41 56 70 85 103 120 130 134 128 125 106 93 83 68 60 65 67 74 81 77 74 76 72 69 84 116 113 61 41 55 91 131 121 13 15 20 30 21 23 24 25 21
42 47 54 63 63 69 86 110 118 112 109 101 92 86 74 61 58 58 59 66 69 67 67 63 62 63 65 86 86 73 61 53 53 101 345 352 4 15 20 26 34 30 23
46 49 51 59 59 58 71 81 95 104 106 100 93 89 76 66 61 58 64 66 67 66 65 65 66 65 63 68 65 58 64 68 54 61 64 346 327 335 1 19 29 21 14